Showing default

OPS 7218 (TRANSIT 16), 2807

Orbit data source: Space-Track

OPS 7218 (TRANSIT 16), 2807 is a payload satellite owned by USN NAVAIR (US) in LEO that was launched on Thu, 18 May 1967 UTC via an SCOUT A launch vehicle from the Air Force Western Test Range (AFWTR). Payload-class satellites include a variety of spacecraft equipped with specific instruments for various scientific and technological missions. These include communications satellites like Starlink; space stations such as the ISS; scientific satellites like the Hubble; Earth observation satellites from companies like Planet Labs, Umbra, and HawkEye 360; GPS; miniature CubeSats for education and research; and military/defense satellites.

Loading next visibility...
Identifier
2807, 1967-048A
Orbit
LEO
Country
Flag of USUS
Related business
Manufacturer
APL
Mission
Spacecraft
Bus & Motor
TRANSIT 5, Unknown motor
Mass
~50 kg wet, ~50 kg dry
Launch date (UTC)
1967-05-18 (59 years ago)
Launch vehicle
SCOUT A
Launch site
Air Force Western Test Range (AFWTR)
Object type
Payload
Rocket body
Debris
Shape & HBR
Unknown
Radar Cross Section
Large (>1 m²)

Expand to show TLE details & history
Last TLE update: 10 hours ago

TLE from 10 hours ago
0 OPS 7218 (TRANSIT 16)
1 02807U 67048A   26101.11056287  .00000104  00000-0  14531-3 0  9994
2 02807  89.6785 350.1170 0021545 126.9300  33.9862 13.50752481898874
Epoch: 2026-04-11T02:39Z
TLE epoch observation values (Epoch: 2026-04-11T02:39:12.631Z)
Latitude
18.94075°
Longitude
-69.12996°
Altitude
1,058.664 km
Speed
7.331 km/s
True Right ascension
11h 20m 01s
True Declination
18° 50' 23"
Sunlit
Object was in full shadow at epoch
Visualization orbit readout
Latitude
Unknown
Longitude
Unknown
Altitude
Unknown
Speed
Unknown
Apparent Right ascension
Unknown
Apparent Declination
Unknown
Sunlit
N/A
Visualization observer readout
Local Sidereal Time
18:41:39
Azimuth
Unknown
Elevation
Unknown
Doppler factor
Unknown
Orbital elements
Apogee altitude
1,082.58 km
Perigee altitude
1,050.501 km
Semi-major axis
7,444.677 km
Eccentricity
0.00215
Inclination
89.6785°
RAAN
350.117°
Arg. of periapsis
126.93°
True anomaly
34.12452°
Mean anomaly
33.9862°
Eccentric anomaly
34.05533°
Mean motion
3.37889 °/min
Orbital period
106.54 mins
BSTAR
0.00014531
Loading maneuver chart data...
Computing Atmospheric mass density...
Loading historical data...
Loading historical data...
Loading historical data...
Loading historical data...
Loading historical data...
Loading historical data...
Loading historical data...

Documentation

Showing up to 5 results
|